{"data":{"norad_id":48353,"intl_designator":"2021-038A","name":"STARLINK-2613","alt_names":[],"object_type":"PAYLOAD","status":"ACTIVE","operator":null,"country":"US","launch_date":"2021-05-04","launch_site_code":"AFETR","launch_vehicle":null,"mission":null,"orbit_class":"UNKNOWN","rcs_meters":null,"size_class":null,"mass_kg":null,"dimensions":null,"purposes":["comms"],"wikipedia_slug":null,"has_3d_model":false,"image_url":null,"decayed_at":null,"tle_current":{"epoch":"2026-09-19T11:20:50.894592Z","epoch_age_seconds":122473,"freshness":"FRESH","line1":"1 48353U 21038A   26262.47281128  .00000100  00000+0  15001-4 0  9999","line2":"2 48353  53.1620 176.2997 0001388  74.8163 285.2992 15.31698024296779","mean_motion":15.31698024,"eccentricity":0.0001388,"inclination_deg":53.162,"raan_deg":176.2997,"arg_perigee_deg":74.8163,"mean_anomaly_deg":285.2992,"bstar":1.5001e-5,"rev_number":29677,"period_min":94.013309244825,"perigee_km":469.79526064064,"apogee_km":471.69651052968,"semimajor_km":6848.8828855852,"source":"CELESTRAK","updated_at":"2026-09-20T09:00:38.938544Z"}}}